Date String (YYYY-MM-DD hh:mm:ss) UTC,Instrument flags,Ambient pressure (hPa),Sample flow (lpm),Bypass flow (lpm),Sample temperature (°C),Ambient temperature (°C),ASC tube jacket temperature (°C),LED temperature (°C),Box temperature (°C),Sample RH (%),Span deviation,Mass concentration (μg/m³),Mass concentration (μg/m³),Mass concentration (μg/m³)
DateTimeUTC,F1_M11,P_M11,Q1_M11,Q2_M11,T1_M11,T2_M11,T3_M11,T4_M11,T5_M11,U1_M11,ZSPAN_M11,X0_M11,X2_M11,X1_M11
2022-06-05 17:00:00,,0820.3,5.00,0.00,29.2,27.4,00.0,38.1,31.1,23.2,0000.0,0013.17,0004.48,0003.29
2022-06-05 17:01:00,,0820.3,5.00,0.00,29.2,27.6,00.0,38.1,31.1,22.6,0000.0,0013.06,0004.45,0003.30
2022-06-05 17:02:00,,0820.3,4.99,0.00,29.2,27.7,00.0,38.1,31.1,22.3,0000.0,0013.09,0004.43,0003.30
2022-06-05 17:03:00,,0820.3,5.00,0.00,29.3,27.9,00.0,38.1,31.2,22.4,0000.0,0013.27,0004.47,0003.29
2022-06-05 17:04:00,,0820.3,5.01,0.00,29.3,28.0,00.0,38.1,31.2,22.7,0000.0,0012.84,0004.47,0003.29
2022-06-05 17:05:00,,0820.3,5.00,0.00,29.3,28.1,00.0,38.1,31.2,22.3,0000.0,0012.19,0004.44,0003.27
2022-06-05 17:06:00,,0820.3,5.00,0.00,29.3,28.2,00.0,38.1,31.3,22.7,0000.0,0011.69,0004.42,0003.26
2022-06-05 17:07:00,,0820.3,5.00,0.00,29.3,28.3,00.0,38.2,31.3,21.6,0000.0,0011.42,0004.39,0003.26
2022-06-05 17:08:00,,0820.3,5.01,0.00,29.4,28.4,00.0,38.2,31.3,21.8,0000.0,0011.60,0004.35,0003.26
2022-06-05 17:09:00,,0820.3,4.99,0.00,29.4,28.4,00.0,38.2,31.4,21.8,0000.0,0011.26,0004.37,0003.26
2022-06-05 17:10:00,,0820.2,5.00,0.00,29.4,28.5,00.0,38.2,31.4,22.2,0000.0,0009.59,0004.34,0003.26
2022-06-05 17:11:00,,0820.2,5.01,0.00,29.5,28.6,00.0,38.2,31.4,22.1,0000.0,0009.89,0004.37,0003.26
2022-06-05 17:12:00,,0820.2,4.99,0.00,29.5,28.4,00.0,38.2,31.4,23.1,0000.0,0009.89,0004.36,0003.25
2022-06-05 17:13:00,,0820.2,5.02,0.00,29.5,27.7,00.0,38.2,31.2,22.4,0000.0,0009.97,0004.41,0003.25
2022-06-05 17:14:00,,0820.2,4.99,0.00,29.4,27.1,00.0,38.1,31.0,23.0,0000.0,0009.89,0004.40,0003.25
2022-06-05 17:15:00,,0820.2,5.01,0.00,29.3,27.0,00.0,38.1,31.0,22.0,0000.0,0009.98,0004.37,0003.24
2022-06-05 17:16:00,,0820.2,4.99,0.00,29.2,27.1,00.0,38.1,31.0,22.2,0000.0,0010.44,0004.38,0003.25
2022-06-05 17:17:00,,0820.2,5.01,0.00,29.2,27.2,00.0,38.1,31.0,22.4,0000.0,0011.24,0004.39,0003.25
2022-06-05 17:18:00,,0820.2,4.99,0.00,29.2,27.3,00.0,38.1,31.0,24.2,0000.0,0011.89,0004.42,0003.25
2022-06-05 17:19:00,,0820.2,5.00,0.00,29.2,27.5,00.0,38.1,31.0,23.3,0000.0,0012.43,0004.45,0003.25
2022-06-05 17:20:00,,0820.3,5.00,0.00,29.2,27.7,00.0,38.1,31.1,22.3,0000.0,0012.22,0004.42,0003.24
2022-06-05 17:21:00,,0820.2,5.01,0.00,29.2,27.8,00.0,38.1,31.1,22.2,0000.0,0013.40,0004.42,0003.23
2022-06-05 17:22:00,,0820.3,5.00,0.00,29.2,27.9,00.0,38.1,31.1,22.5,0000.0,0014.91,0004.41,0003.21
2022-06-05 17:23:00,,0820.2,5.00,0.00,29.2,28.0,00.0,38.1,31.2,23.6,0000.0,0015.44,0004.41,0003.19
2022-06-05 17:24:00,,0820.2,4.99,0.00,29.3,28.2,00.0,38.1,31.2,24.1,0000.0,0016.95,0004.38,0003.17
2022-06-05 17:25:00,,0820.3,5.00,0.00,29.3,28.2,00.0,38.1,31.3,24.6,0000.0,0017.62,0004.33,0003.14
2022-06-05 17:26:00,,0820.3,5.00,0.00,29.3,28.3,00.0,38.1,31.3,23.2,0000.0,0017.61,0004.28,0003.11
2022-06-05 17:27:00,,0820.3,5.00,0.00,29.4,28.4,00.0,38.1,31.3,23.0,0000.0,0017.28,0004.26,0003.07
2022-06-05 17:28:00,,0820.3,5.00,0.00,29.4,28.5,00.0,38.2,31.4,23.7,0000.0,0016.31,0004.22,0003.04
2022-06-05 17:29:00,,0820.3,4.99,0.00,29.4,28.4,00.0,38.2,31.4,23.0,0000.0,0015.75,0004.19,0002.99
2022-06-05 17:30:00,,0820.3,5.00,0.00,29.4,27.6,00.0,38.1,31.2,22.6,0000.0,0014.95,0004.15,0002.94
2022-06-05 17:31:00,,0820.3,5.00,0.00,29.3,27.0,00.0,38.0,31.0,23.4,0000.0,0014.93,0004.12,0002.90
2022-06-05 17:32:00,,0820.3,5.00,0.00,29.2,26.9,00.0,38.0,30.9,21.9,0000.0,0013.55,0004.10,0002.87
2022-06-05 17:33:00,,0820.2,5.00,0.00,29.2,27.0,00.0,38.0,30.9,24.1,0000.0,0011.69,0004.02,0002.88
2022-06-05 17:34:00,,0820.2,4.99,0.00,29.1,27.1,00.0,38.0,30.9,22.2,0000.0,0011.51,0004.00,0002.87
2022-06-05 17:35:00,,0820.2,5.00,0.00,29.1,27.3,00.0,38.0,31.0,21.4,0000.0,0009.88,0003.93,0002.86
2022-06-05 17:36:00,,0820.2,5.01,0.00,29.1,27.5,00.0,38.0,31.0,21.1,0000.0,0009.68,0003.91,0002.87
2022-06-05 17:37:00,,0820.2,5.01,0.00,29.1,27.6,00.0,38.0,31.0,22.4,0000.0,0009.57,0003.96,0002.89
2022-06-05 17:38:00,,0820.2,5.00,0.00,29.1,27.8,00.0,38.0,31.1,21.6,0000.0,0009.34,0003.96,0002.90
2022-06-05 17:39:00,,0820.2,4.99,0.00,29.2,27.9,00.0,38.0,31.1,23.0,0000.0,0010.18,0004.00,0002.93
2022-06-05 17:40:00,,0820.1,4.99,0.00,29.2,28.0,00.0,38.0,31.2,22.3,0000.0,0011.37,0004.03,0002.95
2022-06-05 17:41:00,,0820.1,5.00,0.00,29.2,28.2,00.0,38.0,31.2,22.7,0000.0,0012.05,0004.08,0002.96
2022-06-05 17:42:00,,0820.2,5.00,0.00,29.3,28.3,00.0,38.1,31.2,23.0,0000.0,0012.26,0004.10,0002.97
2022-06-05 17:43:00,,0820.1,5.00,0.00,29.3,28.3,00.0,38.1,31.3,21.7,0000.0,0012.72,0004.12,0003.00
2022-06-05 17:44:00,,0820.2,5.00,0.00,29.3,28.4,00.0,38.1,31.3,21.3,0000.0,0012.97,0004.17,0003.02
2022-06-05 17:45:00,,0820.1,5.00,0.00,29.4,28.5,00.0,38.1,31.4,21.1,0000.0,0012.37,0004.15,0003.05
2022-06-05 17:46:00,,0820.1,5.00,0.00,29.4,28.4,00.0,38.1,31.4,21.3,0000.0,0012.34,0004.17,0003.07
2022-06-05 17:47:00,,0819.9,5.01,0.00,29.4,27.7,00.0,38.1,31.2,22.1,0000.0,0012.35,0004.19,0003.09
2022-06-05 17:48:00,,0820.0,4.99,0.00,29.3,27.0,00.0,38.0,31.0,22.4,0000.0,0013.33,0004.17,0003.09
2022-06-05 17:49:00,,0819.9,5.01,0.00,29.2,26.9,00.0,38.0,30.9,21.8,0000.0,0014.02,0004.20,0003.09
2022-06-05 17:50:00,,0819.9,5.00,0.00,29.2,27.0,00.0,38.0,30.9,22.3,0000.0,0013.67,0004.24,0003.07
2022-06-05 17:51:00,,0819.9,5.02,0.00,29.1,27.1,00.0,38.0,30.9,22.4,0000.0,0012.66,0004.27,0003.07
2022-06-05 17:52:00,,0819.9,5.00,0.00,29.1,27.3,00.0,38.0,30.9,22.5,0000.0,0012.54,0004.25,0003.10
2022-06-05 17:53:00,,0819.9,5.01,0.00,29.1,27.4,00.0,38.0,31.0,23.0,0000.0,0013.19,0004.22,0003.12
2022-06-05 17:54:00,,0819.9,5.00,0.00,29.1,27.6,00.0,38.0,31.0,22.3,0000.0,0013.06,0004.23,0003.12
2022-06-05 17:55:00,,0819.9,5.00,0.00,29.1,27.8,00.0,38.0,31.1,22.7,0000.0,0012.96,0004.26,0003.14
2022-06-05 17:56:00,,0819.9,4.99,0.00,29.2,27.9,00.0,38.0,31.1,23.4,0000.0,0013.12,0004.30,0003.15
2022-06-05 17:57:00,,0819.8,5.01,0.00,29.2,28.0,00.0,38.0,31.1,22.2,0000.0,0013.11,0004.31,0003.15
2022-06-05 17:58:00,,0819.9,5.00,0.00,29.2,28.1,00.0,38.0,31.2,21.9,0000.0,0012.77,0004.32,0003.17
2022-06-05 17:59:00,,0819.9,4.99,0.00,29.2,28.2,00.0,38.0,31.2,22.6,0000.0,0012.40,0004.39,0003.19
